TimeEDT,TemperatureF,Dew PointF,Humidity,Sea Level PressureIn,VisibilityMPH,Wind Direction,Wind SpeedMPH,Gust SpeedMPH,PrecipitationIn,Events,Conditions,WindDirDegrees,DateUTC
12:15 AM,49.1,49.1,100,29.76,7.0,NNE,6.9,-,N/A,,Overcast,20,2014-04-13 04:15:00
12:34 AM,48.6,48.6,100,29.77,5.0,North,6.9,-,0.02,,Overcast,360,2014-04-13 04:34:00
12:55 AM,48.7,48.7,100,29.79,1.0,ESE,10.4,-,0.13,,Unknown,120,2014-04-13 04:55:00
1:15 AM,48.7,48.7,100,29.77,5.0,South,3.5,-,0.01,,Overcast,180,2014-04-13 05:15:00
1:34 AM,49.1,49.1,100,29.78,7.0,Calm,Calm,-,0.02,,Overcast,0,2014-04-13 05:34:00
1:55 AM,48.7,48.7,100,29.77,4.0,Calm,Calm,-,0.04,,Unknown,0,2014-04-13 05:55:00
2:15 AM,49.8,49.8,100,29.77,1.8,Calm,Calm,-,0.05,,Unknown,0,2014-04-13 06:15:00
2:34 AM,50.4,50.4,100,29.79,1.8,WSW,10.4,-,0.32,Rain,Heavy Rain,250,2014-04-13 06:34:00
2:55 AM,52.3,52.3,100,29.78,0.8,SSW,6.9,-,0.67,Rain,Heavy Rain,200,2014-04-13 06:55:00
3:15 AM,52.2,52.2,100,29.77,5.0,South,8.1,-,0.08,Rain,Heavy Rain,170,2014-04-13 07:15:00
3:34 AM,52.0,52.0,100,29.76,3.0,SSE,4.6,-,0.26,Rain,Rain,150,2014-04-13 07:34:00
3:55 AM,51.8,51.8,100,29.74,3.0,SSE,8.1,-,0.32,Rain,Rain,150,2014-04-13 07:55:00
4:15 AM,51.8,51.8,100,29.74,5.0,SSE,8.1,-,0.02,Rain,Rain,160,2014-04-13 08:15:00
4:35 AM,52.3,52.3,100,29.73,5.0,SSE,5.8,-,0.07,Rain,Rain,150,2014-04-13 08:35:00
4:55 AM,52.3,52.3,100,29.72,4.0,SE,8.1,-,0.15,Rain,Heavy Rain,140,2014-04-13 08:55:00
5:15 AM,52.7,52.7,100,29.71,10.0,SE,8.1,-,0.03,Rain,Light Rain,130,2014-04-13 09:15:00
5:35 AM,52.5,52.5,100,29.70,10.0,South,9.2,-,0.05,Rain,Light Rain,190,2014-04-13 09:35:00
5:55 AM,52.0,52.0,100,29.70,10.0,South,9.2,-,0.05,,Overcast,180,2014-04-13 09:55:00
6:14 AM,52.3,52.3,100,29.71,10.0,Calm,Calm,-,N/A,,Overcast,0,2014-04-13 10:14:00
6:35 AM,52.2,52.2,100,29.77,1.0,SW,6.9,-,0.22,Rain,Heavy Rain,230,2014-04-13 10:35:00
6:55 AM,51.8,51.8,100,29.79,4.0,SW,4.6,-,0.33,Rain,Heavy Rain,230,2014-04-13 10:55:00
7:14 AM,51.3,51.3,100,29.62,3.0,East,13.8,-,0.04,Rain,Light Rain,80,2014-04-13 11:14:00
7:35 AM,51.1,51.1,100,29.62,5.0,SE,8.1,-,0.04,,Mostly Cloudy,130,2014-04-13 11:35:00
7:55 AM,50.9,50.9,100,29.62,5.0,South,9.2,-,0.04,,Mostly Cloudy,170,2014-04-13 11:55:00
8:15 AM,51.1,51.1,100,29.64,5.0,South,10.4,17.3,N/A,,Mostly Cloudy,180,2014-04-13 12:15:00
8:35 AM,51.1,51.1,100,29.65,5.0,South,6.9,-,N/A,,Overcast,170,2014-04-13 12:35:00
8:54 AM,52.0,52.0,100,29.66,5.0,South,6.9,-,N/A,,Scattered Clouds,190,2014-04-13 12:54:00
9:15 AM,52.7,52.7,100,29.69,5.0,North,-9999.0,-,N/A,,Mostly Cloudy,0,2014-04-13 13:15:00
9:35 AM,53.1,53.1,100,29.70,7.0,NW,4.6,-,N/A,,Overcast,310,2014-04-13 13:35:00
9:55 AM,53.1,53.1,100,29.71,5.0,Calm,Calm,-,N/A,,Overcast,0,2014-04-13 13:55:00
10:15 AM,53.6,53.6,100,29.72,7.0,NW,8.1,-,N/A,,Overcast,310,2014-04-13 14:15:00
10:35 AM,53.6,53.6,100,29.72,7.0,NNW,5.8,-,N/A,,Overcast,330,2014-04-13 14:35:00
10:54 AM,53.4,53.4,100,29.71,5.0,NNW,3.5,-,N/A,,Overcast,330,2014-04-13 14:54:00
11:34 AM,53.6,53.6,100,29.71,5.0,Calm,Calm,-,N/A,,Overcast,0,2014-04-13 15:34:00
11:54 AM,53.6,53.6,100,29.73,5.0,NW,6.9,-,N/A,,Overcast,310,2014-04-13 15:54:00
12:15 PM,53.6,53.6,100,29.74,7.0,NW,9.2,-,N/A,,Overcast,310,2014-04-13 16:15:00
12:35 PM,54.5,54.1,99,29.73,10.0,WNW,8.1,-,N/A,,Overcast,300,2014-04-13 16:35:00
12:55 PM,55.2,54.3,97,29.73,10.0,NE,4.6,-,N/A,,Overcast,40,2014-04-13 16:55:00
1:15 PM,56.7,54.9,94,29.73,10.0,NNE,5.8,-,N/A,,Overcast,30,2014-04-13 17:15:00
1:34 PM,58.3,54.9,88,29.73,10.0,NNE,9.2,-,N/A,,Overcast,30,2014-04-13 17:34:00
1:55 PM,59.0,55.4,88,29.75,10.0,Calm,Calm,-,N/A,,Overcast,0,2014-04-13 17:55:00
2:15 PM,59.5,52.0,76,29.75,10.0,Calm,Calm,-,N/A,,Overcast,0,2014-04-13 18:15:00
2:34 PM,60.3,52.2,75,29.75,10.0,Calm,Calm,-,N/A,,Overcast,0,2014-04-13 18:34:00
2:55 PM,61.2,52.7,74,29.74,10.0,ESE,5.8,-,N/A,,Overcast,110,2014-04-13 18:55:00
3:15 PM,62.6,52.9,70,29.75,10.0,Calm,Calm,-,N/A,,Scattered Clouds,0,2014-04-13 19:15:00
3:34 PM,63.1,51.8,66,29.74,10.0,Calm,Calm,-,N/A,,Clear,0,2014-04-13 19:34:00
3:55 PM,63.5,51.4,65,29.73,10.0,Calm,Calm,-,N/A,,Mostly Cloudy,0,2014-04-13 19:55:00
4:15 PM,63.5,51.4,65,29.72,10.0,Calm,Calm,-,N/A,,Overcast,0,2014-04-13 20:15:00
4:34 PM,63.5,50.5,63,29.72,10.0,Calm,Calm,-,N/A,,Mostly Cloudy,0,2014-04-13 20:34:00
4:55 PM,63.1,50.0,62,29.72,10.0,Calm,Calm,-,N/A,,Scattered Clouds,0,2014-04-13 20:55:00
5:15 PM,63.0,52.0,67,29.71,10.0,SSE,5.8,-,N/A,,Mostly Cloudy,150,2014-04-13 21:15:00
5:34 PM,63.1,51.8,66,29.70,10.0,Calm,Calm,-,N/A,,Overcast,0,2014-04-13 21:34:00
5:55 PM,61.7,52.7,72,29.70,10.0,SSE,6.9,-,N/A,,Overcast,160,2014-04-13 21:55:00
6:15 PM,60.3,52.7,76,29.69,10.0,SSE,6.9,-,N/A,,Mostly Cloudy,150,2014-04-13 22:15:00
6:34 PM,59.5,52.7,78,29.71,10.0,South,8.1,-,N/A,,Mostly Cloudy,170,2014-04-13 22:34:00
6:55 PM,59.4,52.7,79,29.73,10.0,SSW,11.5,16.1,N/A,,Overcast,200,2014-04-13 22:55:00
7:15 PM,58.1,53.1,83,29.68,5.0,ENE,4.6,-,0.01,Rain,Rain,60,2014-04-13 23:15:00
7:34 PM,57.2,56.7,98,29.68,7.0,Calm,Calm,-,0.02,Rain,Light Rain,0,2014-04-13 23:34:00
7:55 PM,56.7,56.7,100,29.69,7.0,SSE,4.6,-,0.02,Rain,Light Rain,160,2014-04-13 23:55:00
8:15 PM,56.3,56.3,100,29.65,4.0,East,5.8,-,0.03,Rain,Rain,100,2014-04-14 00:15:00
8:34 PM,55.9,55.9,100,29.66,5.0,SE,9.2,-,0.05,Rain,Rain,130,2014-04-14 00:34:00
8:55 PM,55.4,55.4,100,29.64,5.0,ESE,6.9,-,0.12,Rain,Light Rain,110,2014-04-14 00:55:00
9:14 PM,55.2,55.2,100,29.63,4.0,ESE,6.9,-,0.06,Rain,Heavy Rain,110,2014-04-14 01:14:00
9:34 PM,54.9,54.9,100,29.62,5.0,East,8.1,-,0.14,Rain,Rain,100,2014-04-14 01:34:00
9:55 PM,54.9,54.9,100,29.61,7.0,ESE,8.1,-,0.18,Rain,Heavy Rain,120,2014-04-14 01:55:00
10:15 PM,54.5,54.5,100,29.61,4.0,ESE,8.1,-,0.14,Rain,Rain,120,2014-04-14 02:15:00
10:34 PM,54.7,54.7,100,29.60,10.0,SE,12.7,16.1,0.16,Rain,Rain,130,2014-04-14 02:34:00
10:55 PM,54.5,54.5,100,29.58,7.0,SE,9.2,-,0.18,Rain,Light Rain,130,2014-04-14 02:55:00
11:14 PM,54.5,54.5,100,29.56,7.0,ESE,9.2,-,0.02,Rain,Rain,120,2014-04-14 03:14:00
11:35 PM,54.9,54.9,100,29.56,7.0,SSW,8.1,18.4,0.09,Rain,Heavy Rain,200,2014-04-14 03:35:00
11:55 PM,55.4,55.4,100,29.52,7.0,SSE,10.4,-,0.17,Rain,Rain,150,2014-04-14 03:55:00